Weather History for Camp Pendleton, CA

Change the Weather History Date:

Friday, January 11, 2013

  Actual Average Record
Temperature  
Mean Temperature 42 °F -  
Max Temperature 55 °F 65 °F 61 °F (2015)
Min Temperature 30 °F 38 °F 53 °F (2015)
Degree Days  
Heating Degree Days 22    
Moisture  
Dew Point 26 °F    
Average Humidity 54    
Maximum Humidity 79    
Minimum Humidity 27    
Precipitation  
Precipitation 0.00 in - - ()
Sea Level Pressure  
Sea Level Pressure 30.13 in    
Wind  
Wind Speed 2 mph (West)    
Max Wind Speed 10 mph    
Max Gust Speed 17 mph    
Visibility 10 miles    
Events      
Averages and records for this station are not official NWS values.
T = Trace of Precipitation, MM = Missing Value Source: NWS Daily Summary

Daily Weather History Graph

Daily Weather History Graph

Search for Another Location

Airport:

Trip Planner

Search our weather history database for the weather conditions in past years. The results will help you decide how hot, cold, wet, or windy it might be!

Date:

Astronomy

Jan. 11, 2013 Rise Set
Actual Time 6:53 AM PST 5:01 PM PST
Civil Twilight 6:26 AM PST 5:28 PM PST
Nautical Twilight 5:56 AM PST 5:59 PM PST
Astronomical Twilight 5:26 AM PST 6:29 PM PST
Moon 6:32 AM PST (1/11) 5:21 PM PST (1/11)
Length of Visible Light 11h 02m
Length of Day
10h 07m
New Moon, 0% of the Moon is Illuminated
Jan 11
New Moon
Jan 18
First Quarter
Jan 26
Full
Feb 3
Last Quarter
Feb 9
New

Hourly Weather History & Observations

Time (PST) Temp. Windchill Dew Point Humidity Pressure Visibility Wind Dir Wind Speed Gust Speed Precip Events Conditions
12:54 AM 46.0 °F - 24.1 °F 42% 30.11 in 10.0 mi Calm Calm - N/A   Clear
1:54 AM 44.1 °F 42.5 °F 25.0 °F 47% 30.12 in 10.0 mi NNW 3.5 mph - N/A   Clear
2:54 AM 39.0 °F - 25.0 °F 57% 30.13 in 10.0 mi Calm Calm - N/A   Clear
3:54 AM 37.0 °F - 25.0 °F 62% 30.15 in 10.0 mi Calm Calm - N/A   Clear
4:54 AM 33.1 °F - 25.0 °F 72% 30.16 in 10.0 mi Calm Calm - N/A   Clear
5:54 AM 33.1 °F - 25.0 °F 72% 30.18 in 10.0 mi Calm Calm - N/A   Clear
6:54 AM 30.9 °F 27.5 °F 24.1 °F 76% 30.19 in 10.0 mi North 3.5 mph - N/A   Clear
7:54 AM 33.1 °F - 26.1 °F 75% 30.21 in 10.0 mi Calm Calm - N/A   Clear
8:54 AM 39.9 °F 37.8 °F 28.0 °F 63% 30.22 in 10.0 mi ESE 3.5 mph - N/A   Partly Cloudy
9:54 AM 46.9 °F - 28.0 °F 48% 30.19 in 10.0 mi Calm Calm - N/A   Clear
10:54 AM 54.0 °F - 21.0 °F 28% 30.17 in 10.0 mi Variable 6.9 mph - N/A   Clear
11:54 AM 55.9 °F - 21.9 °F 27% 30.13 in 10.0 mi WSW 6.9 mph - N/A   Clear
12:54 PM 55.9 °F - 26.1 °F 32% 30.10 in 10.0 mi WSW 10.4 mph - N/A   Partly Cloudy
1:54 PM 55.0 °F - 25.0 °F 31% 30.09 in 10.0 mi WSW 9.2 mph 17.3 mph N/A   Partly Cloudy
2:54 PM 54.0 °F - 24.1 °F 31% 30.08 in 10.0 mi WSW 9.2 mph 16.1 mph N/A   Partly Cloudy
3:54 PM 53.1 °F - 27.0 °F 37% 30.08 in 10.0 mi WSW 8.1 mph - N/A   Partly Cloudy
4:54 PM 51.1 °F - 26.1 °F 38% 30.07 in 10.0 mi SW 4.6 mph - N/A   Partly Cloudy
5:54 PM 46.9 °F - 27.0 °F 46% 30.08 in 10.0 mi Calm Calm - N/A   Partly Cloudy
6:54 PM 44.1 °F - 28.9 °F 55% 30.08 in 10.0 mi Calm Calm - N/A   Clear
7:54 PM 42.1 °F - 30.0 °F 62% 30.09 in 10.0 mi Calm Calm - N/A   Clear
8:54 PM 39.0 °F - 28.9 °F 67% 30.09 in 10.0 mi Calm Calm - N/A   Clear
9:54 PM 35.1 °F - 27.0 °F 72% 30.09 in 10.0 mi Calm Calm - N/A   Clear
10:54 PM 35.1 °F 31.0 °F 28.0 °F 76% 30.10 in 10.0 mi NE 4.6 mph - N/A   Clear
11:54 PM 32.0 °F - 26.1 °F 79% 30.09 in 10.0 mi Calm Calm - N/A   Clear